Tracking 25686 objects as of 25-May-2022
HD Live streaming from Space Station
objects crossing your sky now

BREEZE-M DEB (TANK)

Track BREEZE-M DEB (TANK) now!


NORAD ID: 32488
Int'l Code: 2008-006B
Perigee: 749.3 km
Apogee: 36,298.5 km
Inclination: 48.0 °
Period: 651.5 minutes
Semi major axis: 24894 km
RCS: 5.2229 m2 (large)
Launch date: February 11, 2008
Source: Commonwealth of Independent States (former USSR) (CIS)
Launch site: TYURATAM MISSILE AND SPACE COMPLEX (TTMTR)

Note: This is SATELLITE DEBRIS
aabbcc
Your satellite tracking list
Your tracking list is empty




NASA's NSSDC Master Catalog

Two Line Element Set (TLE):
1 32488U 08006B   22144.41683543 -.00000010  00000-0  10328-2 0  9994
2 32488  48.0418 184.5481 7139849  38.3751 358.1511  2.21022730115315
Source of the keplerian elements: AFSPC